| time (UTC) | temp F | wind direction | speed MPH | gust MPH | rain 1hr in | rain 24hr in | rain mn in | humidity % | barometer mb |
| 20260903161104 | 59 | 316 | 4.0 | 8.0 | 0.00 | 0.00 | 0.00 | 84 | 1020.0 |
| 20260903160604 | 60 | 203 | 4.0 | 9.0 | 0.00 | 0.00 | 0.00 | 84 | 1020.1 |
| 20260903155604 | 60 | 168 | 4.0 | 9.0 | 0.00 | 0.00 | 0.00 | 83 | 1020.1 |
| 20260903155105 | 60 | 167 | 4.0 | 8.0 | 0.00 | 0.00 | 0.00 | 82 | 1020.0 |
| 20260903154104 | 60 | 215 | 4.0 | 8.0 | 0.00 | 0.00 | 0.00 | 81 | 1019.9 |
| 20260903153604 | 61 | 180 | 5.0 | 13.0 | 0.00 | 0.00 | 0.00 | 81 | 1019.9 |
| 20260903153104 | 61 | 172 | 4.0 | 8.0 | 0.00 | 0.00 | 0.00 | 81 | 1019.9 |
| 20260903152605 | 61 | 146 | 6.0 | 10.0 | 0.00 | 0.00 | 0.00 | 79 | 1019.8 |
| 20260903151604 | 60 | 167 | 5.0 | 10.0 | 0.00 | 0.00 | 0.00 | 80 | 1019.6 |
| 20260903151104 | 61 | 228 | 6.0 | 13.0 | 0.00 | 0.00 | 0.00 | 79 | 1019.6 |
| 20260903150604 | 61 | 192 | 5.0 | 8.0 | 0.00 | 0.00 | 0.00 | 78 | 1019.7 |
| 20260903150104 | 61 | 176 | 5.0 | 9.0 | 0.00 | 0.00 | 0.00 | 79 | 1019.7 |
| 20260903145606 | 62 | 147 | 7.0 | 13.0 | 0.00 | 0.00 | 0.00 | 77 | 1019.6 |
| 20260903145104 | 62 | 170 | 5.0 | 10.0 | 0.00 | 0.00 | 0.00 | 78 | 1019.7 |
| 20260903144609 | 62 | 198 | 4.0 | 8.0 | 0.00 | 0.00 | 0.00 | 78 | 1019.7 |
| 20260903144104 | 62 | 134 | 5.0 | 9.0 | 0.00 | 0.00 | 0.00 | 79 | 1019.7 |
| 20260903143604 | 62 | 201 | 3.0 | 8.0 | 0.00 | 0.00 | 0.00 | 77 | 1019.6 |
| 20260903143105 | 62 | 178 | 3.0 | 8.0 | 0.00 | 0.00 | 0.00 | 78 | 1019.8 |
| 20260903141605 | 63 | 156 | 7.0 | 10.0 | 0.00 | 0.00 | 0.00 | 74 | 1020.1 |
| 20260903141104 | 64 | 154 | 6.0 | 8.0 | 0.00 | 0.00 | 0.00 | 74 | 1020.2 |
| 20260903140604 | 64 | 154 | 3.0 | 7.0 | 0.00 | 0.00 | 0.00 | 75 | 1020.2 |
| 20260903140104 | 63 | 149 | 2.0 | 8.0 | 0.00 | 0.00 | 0.00 | 78 | 1020.2 |
| 20260903135605 | 62 | 163 | 5.0 | 10.0 | 0.00 | 0.00 | 0.00 | 76 | 1020.3 |
| 20260903135104 | 63 | 150 | 5.0 | 8.0 | 0.00 | 0.00 | 0.00 | 76 | 1020.4 |
| 20260903134605 | 63 | 162 | 3.0 | 6.0 | 0.00 | 0.00 | 0.00 | 76 | 1020.4 |
| 20260903133604 | 62 | 146 | 4.0 | 9.0 | 0.00 | 0.00 | 0.00 | 79 | 1020.4 |
| 20260903133104 | 62 | 188 | 4.0 | 7.0 | 0.00 | 0.00 | 0.00 | 76 | 1020.5 |
| 20260903132604 | 62 | 207 | 2.0 | 5.0 | 0.00 | 0.00 | 0.00 | 76 | 1020.5 |
| 20260903132104 | 62 | 159 | 3.0 | 9.0 | 0.00 | 0.00 | 0.00 | 78 | 1020.3 |
| 20260903131605 | 62 | 159 | 6.0 | 12.0 | 0.00 | 0.00 | 0.00 | 79 | 1020.3 |
| 20260903131105 | 61 | 158 | 6.0 | 8.0 | 0.00 | 0.00 | 0.00 | 79 | 1020.3 |
| 20260903130105 | 61 | 128 | 5.0 | 8.0 | 0.00 | 0.00 | 0.00 | 80 | 1020.3 |
| 20260903125604 | 61 | 166 | 5.0 | 7.0 | 0.00 | 0.00 | 0.00 | 80 | 1020.3 |
| 20260903125104 | 61 | 28 | 5.0 | 7.0 | 0.00 | 0.00 | 0.00 | 80 | 1020.3 |
| 20260903124104 | 61 | 151 | 5.0 | 9.0 | 0.00 | 0.00 | 0.00 | 80 | 1020.3 |
| 20260903123604 | 61 | 143 | 4.0 | 12.0 | 0.00 | 0.00 | 0.00 | 82 | 1020.3 |
| 20260903123104 | 61 | 164 | 5.0 | 8.0 | 0.00 | 0.00 | 0.00 | 82 | 1020.4 |
| 20260903122604 | 61 | 151 | 6.0 | 12.0 | 0.00 | 0.00 | 0.00 | 80 | 1020.4 |
| 20260903122104 | 62 | 146 | 3.0 | 8.0 | 0.00 | 0.00 | 0.00 | 81 | 1020.4 |
| 20260903121605 | 61 | 159 | 2.0 | 8.0 | 0.00 | 0.00 | 0.00 | 82 | 1020.5 |
| 20260903121105 | 61 | 10 | 4.0 | 9.0 | 0.00 | 0.00 | 0.00 | 82 | 1020.6 |
| 20260903120604 | 62 | 131 | 3.0 | 8.0 | 0.00 | 0.00 | 0.00 | 82 | 1020.6 |
| 20260903120105 | 61 | 39 | 5.0 | 8.0 | 0.00 | 0.00 | 0.00 | 81 | 1020.5 |
| 20260903115604 | 62 | 154 | 3.0 | 7.0 | 0.00 | 0.00 | 0.00 | 81 | 1020.4 |
| 20260903115105 | 61 | 161 | 3.0 | 6.0 | 0.00 | 0.00 | 0.00 | 82 | 1020.6 |
| 20260903114604 | 61 | 150 | 3.0 | 7.0 | 0.00 | 0.00 | 0.00 | 83 | 1020.5 |
| 20260903114104 | 61 | 153 | 3.0 | 8.0 | 0.00 | 0.00 | 0.00 | 83 | 1020.5 |
| 20260903113604 | 60 | 52 | 6.0 | 9.0 | 0.00 | 0.00 | 0.00 | 84 | 1020.5 |
| 20260903113105 | 60 | 138 | 5.0 | 8.0 | 0.00 | 0.00 | 0.00 | 82 | 1020.5 |
| 20260903112604 | 61 | 160 | 4.0 | 9.0 | 0.00 | 0.00 | 0.00 | 82 | 1020.5 |
| 20260903112104 | 61 | 156 | 3.0 | 6.0 | 0.00 | 0.00 | 0.00 | 83 | 1020.5 |
| 20260903111604 | 60 | 135 | 5.0 | 8.0 | 0.00 | 0.00 | 0.00 | 84 | 1020.5 |
| 20260903111104 | 60 | 153 | 3.0 | 7.0 | 0.00 | 0.00 | 0.00 | 83 | 1020.7 |
| 20260903110604 | 60 | 156 | 3.0 | 7.0 | 0.00 | 0.00 | 0.00 | 82 | 1020.7 |
| 20260903110105 | 61 | 128 | 6.0 | 9.0 | 0.00 | 0.00 | 0.00 | 81 | 1020.7 |
| 20260903105604 | 61 | 143 | 5.0 | 7.0 | 0.00 | 0.00 | 0.00 | 81 | 1020.7 |
| 20260903105104 | 61 | 147 | 2.0 | 7.0 | 0.00 | 0.00 | 0.00 | 83 | 1020.7 |
| 20260903104104 | 61 | 157 | 4.0 | 9.0 | 0.00 | 0.00 | 0.00 | 82 | 1020.7 |
| 20260903103604 | 61 | 132 | 4.0 | 8.0 | 0.00 | 0.00 | 0.00 | 81 | 1020.6 |
| 20260903102606 | 61 | 133 | 5.0 | 9.0 | 0.00 | 0.00 | 0.00 | 82 | 1020.6 |
| 20260903102106 | 63 | 132 | 5.0 | 9.0 | 0.00 | 0.00 | 0.00 | 81 | 1020.6 |
| 20260903101606 | 63 | 88 | 3.0 | 7.0 | 0.00 | 0.00 | 0.00 | 80 | 1020.6 |
| 20260903101106 | 62 | 131 | 5.0 | 12.0 | 0.00 | 0.00 | 0.00 | 82 | 1020.6 |
| 20260903100606 | 62 | 120 | 6.0 | 12.0 | 0.00 | 0.00 | 0.00 | 80 | 1020.7 |
| 20260903100106 | 62 | 137 | 4.0 | 10.0 | 0.00 | 0.00 | 0.00 | 80 | 1020.7 |
| 20260903095606 | 62 | 127 | 7.0 | 12.0 | 0.00 | 0.00 | 0.00 | 78 | 1020.7 |
| 20260903094606 | 63 | 141 | 4.0 | 7.0 | 0.00 | 0.00 | 0.00 | 78 | 1021.0 |
| 20260903094106 | 64 | 125 | 4.0 | 9.0 | 0.00 | 0.00 | 0.00 | 77 | 1021.0 |
| 20260903093606 | 63 | 151 | 3.0 | 6.0 | 0.00 | 0.00 | 0.00 | 79 | 1021.0 |
| 20260903093106 | 62 | 145 | 2.0 | 5.0 | 0.00 | 0.00 | 0.00 | 81 | 1021.1 |
| 20260903090606 | 62 | 143 | 3.0 | 6.0 | 0.00 | 0.00 | 0.00 | 79 | 1021.0 |
| 20260903090106 | 62 | 142 | 2.0 | 8.0 | 0.00 | 0.00 | 0.00 | 81 | 1021.0 |
| 20260903085106 | 62 | 147 | 3.0 | 6.0 | 0.00 | 0.00 | 0.00 | 80 | 1020.9 |
| 20260903084606 | 64 | 141 | 2.0 | 5.0 | 0.00 | 0.00 | 0.00 | 76 | 1020.9 |
| 20260903084105 | 65 | 133 | 2.0 | 3.0 | 0.00 | 0.00 | 0.00 | 75 | 1020.9 |
| 20260903083605 | 65 | 133 | 1.0 | 3.0 | 0.00 | 0.00 | 0.00 | 76 | 1020.9 |
| 20260903083106 | 65 | 147 | 1.0 | 3.0 | 0.00 | 0.00 | 0.00 | 74 | 1020.9 |
| 20260903082605 | 65 | 140 | 1.0 | 3.0 | 0.00 | 0.00 | 0.00 | 75 | 1020.8 |
| 20260903082106 | 64 | 144 | 1.0 | 3.0 | 0.00 | 0.00 | 0.00 | 77 | 1020.8 |
| 20260903081606 | 64 | 141 | 1.0 | 3.0 | 0.00 | 0.00 | 0.00 | 78 | 1020.7 |
| 20260903081106 | 63 | 133 | 3.0 | 7.0 | 0.00 | 0.00 | 0.00 | 77 | 1020.7 |
| 20260903080606 | 64 | 140 | 3.0 | 6.0 | 0.00 | 0.00 | 0.00 | 78 | 1020.6 |
| 20260903074606 | 64 | 127 | 1.0 | 5.0 | 0.00 | 0.00 | 0.00 | 78 | 1020.6 |
| 20260903074106 | 64 | 125 | 1.0 | 5.0 | 0.00 | 0.00 | 0.00 | 77 | 1020.7 |
| 20260903073606 | 63 | 122 | 2.0 | 3.0 | 0.00 | 0.00 | 0.00 | 79 | 1020.8 |
| 20260903073105 | 62 | 123 | 2.0 | 3.0 | 0.00 | 0.00 | 0.00 | 80 | 1020.7 |
| 20260903072105 | 62 | 119 | 2.0 | 3.0 | 0.00 | 0.00 | 0.00 | 78 | 1020.7 |
| 20260903071605 | 63 | 114 | 2.0 | 3.0 | 0.00 | 0.00 | 0.00 | 78 | 1020.7 |
| 20260903071106 | 63 | 109 | 1.0 | 5.0 | 0.00 | 0.00 | 0.00 | 79 | 1020.7 |
| 20260903070606 | 62 | 106 | 1.0 | 3.0 | 0.00 | 0.00 | 0.00 | 80 | 1020.7 |
| 20260903070106 | 62 | 103 | 1.0 | 2.0 | 0.00 | 0.00 | 0.00 | 81 | 1020.7 |
| 20260903065105 | 61 | 101 | 2.0 | 3.0 | 0.00 | 0.00 | 0.00 | 81 | 1020.7 |
| 20260903064106 | 62 | 87 | 2.0 | 6.0 | 0.00 | 0.00 | 0.00 | 81 | 1020.5 |
| 20260903063605 | 62 | 54 | 1.0 | 3.0 | 0.00 | 0.00 | 0.00 | 79 | 1020.6 |
| 20260903063106 | 63 | 53 | 3.0 | 5.0 | 0.00 | 0.00 | 0.00 | 76 | 1020.5 |
| 20260903062605 | 63 | 357 | 1.0 | 3.0 | 0.00 | 0.00 | 0.00 | 76 | 1020.5 |
| 20260903062105 | 62 | 358 | 0.0 | 3.0 | 0.00 | 0.00 | 0.00 | 74 | 1020.5 |
| 20260903061606 | 61 | 353 | 0.0 | 1.0 | 0.00 | 0.00 | 0.00 | 74 | 1020.5 |
| 20260903061105 | 60 | 357 | 0.0 | 3.0 | 0.00 | 0.00 | 0.00 | 75 | 1020.5 |
| 20260903055606 | 60 | 353 | 1.0 | 3.0 | 0.00 | 0.00 | 0.00 | 81 | 1020.3 |
| 20260903055105 | 60 | 357 | 2.0 | 3.0 | 0.00 | 0.00 | 0.00 | 80 | 1020.2 |
| 20260903054606 | 60 | 353 | 0.0 | 0.0 | 0.00 | 0.00 | 0.00 | 74 | 1020.2 |
| 20260903054105 | 59 | 357 | 0.0 | 0.0 | 0.00 | 0.00 | 0.00 | 76 | 1020.2 |
| 20260903053106 | 57 | 356 | 0.0 | 3.0 | 0.00 | 0.00 | 0.00 | 81 | 1020.2 |
| 20260903052605 | 57 | 356 | 2.0 | 5.0 | 0.00 | 0.00 | 0.00 | 80 | 1020.1 |
| 20260903052105 | 57 | 351 | 2.0 | 3.0 | 0.00 | 0.00 | 0.00 | 80 | 1020.1 |
| 20260903051606 | 57 | 353 | 2.0 | 3.0 | 0.00 | 0.00 | 0.00 | 78 | 1020.1 |
| 20260903050605 | 56 | 0 | 3.0 | 5.0 | 0.00 | 0.00 | 0.00 | 79 | 1020.0 |
| 20260903045606 | 56 | 357 | 1.0 | 3.0 | 0.00 | 0.00 | 0.00 | 84 | 1019.9 |
| 20260903045106 | 55 | 358 | 3.0 | 3.0 | 0.00 | 0.00 | 0.00 | 84 | 1019.9 |
| 20260903044605 | 55 | 355 | 2.0 | 5.0 | 0.00 | 0.00 | 0.00 | 84 | 1019.8 |
| 20260903043606 | 55 | 358 | 2.0 | 3.0 | 0.00 | 0.00 | 0.00 | 85 | 1019.9 |
| 20260903043106 | 55 | 351 | 2.0 | 3.0 | 0.00 | 0.00 | 0.00 | 84 | 1019.8 |
| 20260903042606 | 55 | 0 | 3.0 | 5.0 | 0.00 | 0.00 | 0.00 | 85 | 1019.9 |
| 20260903042105 | 55 | 358 | 3.0 | 5.0 | 0.00 | 0.00 | 0.00 | 84 | 1019.9 |
| 20260903041605 | 55 | 0 | 1.0 | 2.0 | 0.00 | 0.00 | 0.00 | 84 | 1019.9 |
| 20260903041105 | 55 | 358 | 1.0 | 3.0 | 0.00 | 0.00 | 0.00 | 84 | 1020.0 |
| 20260903040606 | 55 | 356 | 1.0 | 3.0 | 0.00 | 0.00 | 0.00 | 83 | 1020.1 |
| 20260903040106 | 55 | 358 | 2.0 | 3.0 | 0.00 | 0.00 | 0.00 | 83 | 1020.1 |
| 20260903035605 | 56 | 0 | 3.0 | 7.0 | 0.00 | 0.00 | 0.00 | 82 | 1020.1 |
| 20260903035106 | 55 | 0 | 5.0 | 9.0 | 0.00 | 0.00 | 0.00 | 82 | 1020.1 |
| 20260903034606 | 55 | 0 | 5.0 | 7.0 | 0.00 | 0.00 | 0.00 | 83 | 1020.1 |
| 20260903034105 | 55 | 0 | 7.0 | 9.0 | 0.00 | 0.00 | 0.00 | 84 | 1020.1 |
| 20260903033605 | 55 | 355 | 1.0 | 3.0 | 0.00 | 0.00 | 0.00 | 83 | 1020.1 |
| 20260903033105 | 55 | 0 | 0.0 | 1.0 | 0.00 | 0.00 | 0.00 | 83 | 1020.1 |
| 20260903032105 | 55 | 0 | 0.0 | 2.0 | 0.00 | 0.00 | 0.00 | 82 | 1020.1 |
| 20260903031605 | 56 | 0 | 2.0 | 3.0 | 0.00 | 0.00 | 0.00 | 82 | 1020.1 |
| 20260903031106 | 56 | 357 | 4.0 | 7.0 | 0.00 | 0.00 | 0.00 | 82 | 1020.3 |
| 20260903030605 | 55 | 0 | 2.0 | 5.0 | 0.00 | 0.00 | 0.00 | 82 | 1020.2 |
| 20260903030106 | 55 | 358 | 4.0 | 7.0 | 0.00 | 0.00 | 0.00 | 83 | 1020.2 |
| 20260903025605 | 54 | 0 | 2.0 | 3.0 | 0.00 | 0.00 | 0.00 | 85 | 1020.3 |
| 20260903025105 | 55 | 353 | 0.0 | 2.0 | 0.00 | 0.00 | 0.00 | 86 | 1020.2 |
| 20260903024606 | 55 | 350 | 3.0 | 9.0 | 0.00 | 0.00 | 0.00 | 86 | 1020.3 |
| 20260903024105 | 55 | 354 | 7.0 | 10.0 | 0.00 | 0.00 | 0.00 | 86 | 1020.3 |
| 20260903023606 | 55 | 0 | 5.0 | 12.0 | 0.00 | 0.00 | 0.00 | 85 | 1020.3 |
| 20260903023105 | 55 | 350 | 6.0 | 9.0 | 0.00 | 0.00 | 0.00 | 85 | 1020.3 |
| 20260903022105 | 55 | 346 | 3.0 | 7.0 | 0.00 | 0.00 | 0.00 | 85 | 1020.3 |
| 20260903021105 | 55 | 0 | 3.0 | 6.0 | 0.00 | 0.00 | 0.00 | 85 | 1020.3 |
| 20260903020606 | 55 | 358 | 3.0 | 6.0 | 0.00 | 0.00 | 0.00 | 84 | 1020.3 |
| 20260903020105 | 55 | 328 | 2.0 | 3.0 | 0.00 | 0.00 | 0.00 | 84 | 1020.3 |
| 20260903015605 | 55 | 350 | 2.0 | 5.0 | 0.00 | 0.00 | 0.00 | 84 | 1020.3 |
| 20260903015106 | 55 | 349 | 3.0 | 6.0 | 0.00 | 0.00 | 0.00 | 85 | 1020.4 |
| 20260903014605 | 55 | 0 | 3.0 | 6.0 | 0.00 | 0.00 | 0.00 | 85 | 1020.4 |
| 20260903014105 | 55 | 358 | 3.0 | 5.0 | 0.00 | 0.00 | 0.00 | 85 | 1020.5 |
| 20260903013606 | 55 | 346 | 3.0 | 6.0 | 0.00 | 0.00 | 0.00 | 85 | 1020.5 |
| 20260903013105 | 55 | 334 | 3.0 | 5.0 | 0.00 | 0.00 | 0.00 | 85 | 1020.4 |
| 20260903012605 | 55 | 354 | 4.0 | 7.0 | 0.00 | 0.00 | 0.00 | 84 | 1020.4 |
| 20260903012105 | 54 | 354 | 3.0 | 5.0 | 0.00 | 0.00 | 0.00 | 84 | 1020.4 |
| 20260903011605 | 54 | 356 | 2.0 | 3.0 | 0.00 | 0.00 | 0.00 | 84 | 1020.4 |
| 20260903011106 | 54 | 353 | 2.0 | 3.0 | 0.00 | 0.00 | 0.00 | 84 | 1020.4 |
| 20260903010605 | 55 | 347 | 1.0 | 3.0 | 0.00 | 0.00 | 0.00 | 84 | 1020.4 |
| 20260903005606 | 55 | 352 | 3.0 | 5.0 | 0.00 | 0.00 | 0.00 | 84 | 1020.4 |
| 20260903005105 | 54 | 347 | 2.0 | 3.0 | 0.00 | 0.00 | 0.00 | 84 | 1020.4 |
| 20260903004605 | 54 | 346 | 1.0 | 3.0 | 0.00 | 0.00 | 0.00 | 84 | 1020.4 |
| 20260903004105 | 54 | 351 | 2.0 | 3.0 | 0.00 | 0.00 | 0.00 | 84 | 1020.4 |
| 20260903003605 | 54 | 312 | 2.0 | 3.0 | 0.00 | 0.00 | 0.00 | 84 | 1020.4 |
| 20260903002606 | 55 | 299 | 0.0 | 1.0 | 0.00 | 0.00 | 0.00 | 86 | 1020.4 |
| 20260903001606 | 55 | 320 | 1.0 | 2.0 | 0.00 | 0.00 | 0.00 | 86 | 1020.5 |
| 20260903000605 | 55 | 328 | 2.0 | 3.0 | 0.00 | 0.00 | 0.00 | 86 | 1020.5 |
| 20260903000105 | 55 | 291 | 2.0 | 3.0 | 0.00 | 0.00 | 0.00 | 86 | 1020.5 |
| 20260902235605 | 55 | 322 | 2.0 | 3.0 | 0.00 | 0.00 | 0.00 | 86 | 1020.6 |
| 20260902235105 | 55 | 316 | 3.0 | 3.0 | 0.00 | 0.00 | 0.00 | 86 | 1020.6 |
| 20260902234605 | 55 | 308 | 3.0 | 3.0 | 0.00 | 0.00 | 0.00 | 86 | 1020.6 |
| 20260902234106 | 55 | 311 | 3.0 | 3.0 | 0.00 | 0.00 | 0.00 | 86 | 1020.5 |
| 20260902233605 | 55 | 301 | 3.0 | 3.0 | 0.00 | 0.00 | 0.00 | 86 | 1020.6 |
| 20260902233105 | 55 | 284 | 3.0 | 3.0 | 0.00 | 0.00 | 0.00 | 86 | 1020.6 |
| 20260902232605 | 55 | 306 | 3.0 | 3.0 | 0.00 | 0.00 | 0.00 | 86 | 1020.6 |
| 20260902232105 | 55 | 308 | 3.0 | 3.0 | 0.00 | 0.00 | 0.00 | 86 | 1020.6 |
| 20260902231605 | 55 | 249 | 2.0 | 3.0 | 0.00 | 0.00 | 0.00 | 86 | 1020.6 |
| 20260902231105 | 55 | 300 | 2.0 | 3.0 | 0.00 | 0.00 | 0.00 | 86 | 1020.6 |
| 20260902230605 | 54 | 306 | 2.0 | 3.0 | 0.00 | 0.00 | 0.00 | 85 | 1020.7 |
| 20260902230105 | 54 | 345 | 0.0 | 2.0 | 0.00 | 0.00 | 0.00 | 85 | 1020.7 |
| 20260902225605 | 54 | 296 | 0.0 | 0.0 | 0.00 | 0.00 | 0.00 | 85 | 1020.7 |
| 20260902225105 | 54 | 330 | 0.0 | 0.0 | 0.00 | 0.00 | 0.00 | 86 | 1020.6 |
| 20260902224605 | 55 | 277 | 0.0 | 0.0 | 0.00 | 0.00 | 0.00 | 86 | 1020.7 |
| 20260902224105 | 55 | 296 | 0.0 | 0.0 | 0.00 | 0.00 | 0.00 | 86 | 1020.7 |
| 20260902223605 | 55 | 314 | 0.0 | 2.0 | 0.00 | 0.00 | 0.00 | 86 | 1020.6 |
| 20260902223105 | 55 | 358 | 0.0 | 3.0 | 0.00 | 0.00 | 0.00 | 86 | 1020.6 |
| 20260902222605 | 55 | 305 | 0.0 | 3.0 | 0.00 | 0.00 | 0.00 | 85 | 1020.6 |
| 20260902222105 | 55 | 324 | 0.0 | 1.0 | 0.00 | 0.00 | 0.00 | 86 | 1020.5 |
| 20260902221605 | 55 | 258 | 1.0 | 3.0 | 0.00 | 0.00 | 0.00 | 86 | 1020.4 |
| 20260902220105 | 56 | 317 | 0.0 | 1.0 | 0.00 | 0.00 | 0.00 | 86 | 1020.3 |
| 20260902215605 | 56 | 296 | 1.0 | 3.0 | 0.00 | 0.00 | 0.00 | 86 | 1020.2 |
| 20260902215105 | 56 | 298 | 1.0 | 3.0 | 0.00 | 0.00 | 0.00 | 86 | 1020.1 |
| 20260902214605 | 56 | 299 | 3.0 | 5.0 | 0.00 | 0.00 | 0.00 | 86 | 1020.1 |
| 20260902214105 | 56 | 318 | 1.0 | 5.0 | 0.00 | 0.00 | 0.00 | 86 | 1020.1 |
| 20260902213605 | 56 | 319 | 2.0 | 5.0 | 0.00 | 0.00 | 0.00 | 86 | 1020.1 |
| 20260902213105 | 56 | 351 | 3.0 | 5.0 | 0.00 | 0.00 | 0.00 | 86 | 1020.1 |
| 20260902212605 | 56 | 347 | 3.0 | 5.0 | 0.00 | 0.00 | 0.00 | 85 | 1020.1 |
| 20260902212105 | 56 | 0 | 3.0 | 6.0 | 0.00 | 0.00 | 0.00 | 86 | 1020.1 |
| 20260902211605 | 56 | 345 | 2.0 | 3.0 | 0.00 | 0.00 | 0.00 | 86 | 1020.0 |
| 20260902211107 | 56 | 342 | 2.0 | 5.0 | 0.00 | 0.00 | 0.00 | 86 | 1020.1 |
| 20260902210605 | 56 | 350 | 2.0 | 3.0 | 0.00 | 0.00 | 0.00 | 86 | 1020.2 |
| 20260902210105 | 56 | 342 | 2.0 | 3.0 | 0.00 | 0.00 | 0.00 | 86 | 1020.2 |
| 20260902204605 | 56 | 353 | 3.0 | 3.0 | 0.00 | 0.00 | 0.00 | 86 | 1020.1 |
| 20260902204106 | 56 | 313 | 1.0 | 3.0 | 0.00 | 0.00 | 0.00 | 86 | 1020.2 |
| 20260902203605 | 56 | 306 | 1.0 | 3.0 | 0.00 | 0.00 | 0.00 | 86 | 1020.1 |
| 20260902203105 | 56 | 233 | 2.0 | 3.0 | 0.00 | 0.00 | 0.00 | 86 | 1020.0 |
| 20260902202605 | 56 | 275 | 1.0 | 3.0 | 0.00 | 0.00 | 0.00 | 86 | 1020.0 |
| 20260902201605 | 56 | 318 | 1.0 | 3.0 | 0.00 | 0.00 | 0.00 | 86 | 1020.0 |
| 20260902201104 | 56 | 288 | 1.0 | 3.0 | 0.00 | 0.00 | 0.00 | 86 | 1019.9 |
| 20260902200605 | 56 | 273 | 1.0 | 5.0 | 0.00 | 0.00 | 0.00 | 86 | 1020.0 |
| 20260902195605 | 56 | 259 | 1.0 | 2.0 | 0.00 | 0.00 | 0.00 | 86 | 1020.0 |
| 20260902195105 | 56 | 270 | 1.0 | 3.0 | 0.00 | 0.00 | 0.00 | 86 | 1020.0 |
| 20260902194105 | 56 | 226 | 2.0 | 3.0 | 0.00 | 0.00 | 0.00 | 86 | 1019.9 |
| 20260902193605 | 56 | 213 | 2.0 | 3.0 | 0.00 | 0.00 | 0.00 | 86 | 1019.9 |
| 20260902193105 | 56 | 198 | 1.0 | 2.0 | 0.00 | 0.00 | 0.00 | 86 | 1019.9 |
| 20260902192604 | 56 | 206 | 0.0 | 1.0 | 0.00 | 0.00 | 0.00 | 86 | 1019.9 |
| 20260902192105 | 56 | 223 | 0.0 | 1.0 | 0.00 | 0.00 | 0.00 | 86 | 1019.9 |
| 20260902191104 | 56 | 206 | 3.0 | 3.0 | 0.00 | 0.00 | 0.00 | 85 | 1019.7 |
| 20260902190604 | 57 | 190 | 0.0 | 3.0 | 0.00 | 0.00 | 0.00 | 85 | 1019.6 |
| 20260902190105 | 57 | 195 | 2.0 | 3.0 | 0.00 | 0.00 | 0.00 | 85 | 1019.5 |
| 20260902185605 | 57 | 196 | 3.0 | 6.0 | 0.00 | 0.00 | 0.00 | 85 | 1019.4 |
| 20260902185104 | 57 | 203 | 0.0 | 1.0 | 0.00 | 0.00 | 0.00 | 85 | 1019.5 |
| 20260902184605 | 57 | 203 | 0.0 | 5.0 | 0.00 | 0.00 | 0.00 | 84 | 1019.4 |
| 20260902184104 | 57 | 195 | 2.0 | 3.0 | 0.00 | 0.00 | 0.00 | 84 | 1019.3 |
| 20260902183605 | 57 | 194 | 1.0 | 3.0 | 0.00 | 0.00 | 0.00 | 84 | 1019.3 |
| 20260902183107 | 57 | 184 | 5.0 | 8.0 | 0.00 | 0.00 | 0.00 | 84 | 1019.0 |
| 20260902182605 | 57 | 309 | 1.0 | 3.0 | 0.00 | 0.00 | 0.00 | 84 | 1019.0 |
| 20260902182104 | 57 | 315 | 2.0 | 3.0 | 0.00 | 0.00 | 0.00 | 84 | 1019.0 |
| 20260902181104 | 57 | 248 | 2.0 | 5.0 | 0.00 | 0.00 | 0.00 | 84 | 1018.8 |
| 20260902175605 | 58 | 332 | 3.0 | 8.0 | 0.00 | 0.00 | 0.00 | 84 | 1018.8 |
| 20260902175105 | 58 | 354 | 3.0 | 6.0 | 0.00 | 0.00 | 0.00 | 83 | 1018.9 |
| 20260902174605 | 58 | 351 | 3.0 | 6.0 | 0.00 | 0.00 | 0.00 | 83 | 1018.9 |
| 20260902174104 | 58 | 354 | 2.0 | 5.0 | 0.00 | 0.00 | 0.00 | 84 | 1018.9 |
| 20260902172605 | 58 | 351 | 2.0 | 5.0 | 0.00 | 0.00 | 0.00 | 83 | 1018.7 |
| 20260902172105 | 58 | 353 | 2.0 | 3.0 | 0.00 | 0.00 | 0.00 | 83 | 1018.8 |
| 20260902171605 | 58 | 345 | 2.0 | 5.0 | 0.00 | 0.00 | 0.00 | 84 | 1018.8 |
| 20260902171105 | 58 | 21 | 3.0 | 5.0 | 0.00 | 0.00 | 0.00 | 84 | 1018.8 |
| 20260902170605 | 58 | 256 | 3.0 | 6.0 | 0.00 | 0.00 | 0.00 | 83 | 1018.7 |
| 20260902170105 | 58 | 319 | 2.0 | 5.0 | 0.00 | 0.00 | 0.00 | 84 | 1018.8 |
| 20260902165604 | 58 | 230 | 2.0 | 5.0 | 0.00 | 0.00 | 0.00 | 84 | 1018.8 |
| 20260902165104 | 58 | 215 | 3.0 | 7.0 | 0.00 | 0.00 | 0.00 | 84 | 1018.7 |
| 20260902164605 | 58 | 251 | 3.0 | 5.0 | 0.00 | 0.00 | 0.00 | 84 | 1018.7 |
| 20260902164104 | 58 | 172 | 5.0 | 6.0 | 0.00 | 0.00 | 0.00 | 84 | 1018.6 |
| 20260902163604 | 58 | 176 | 3.0 | 3.0 | 0.00 | 0.00 | 0.00 | 84 | 1018.7 |
| 20260902163105 | 58 | 181 | 2.0 | 3.0 | 0.00 | 0.00 | 0.00 | 84 | 1018.8 |
| 20260902162604 | 58 | 175 | 3.0 | 5.0 | 0.00 | 0.00 | 0.00 | 84 | 1018.8 |
| 20260902162105 | 58 | 171 | 3.0 | 5.0 | 0.00 | 0.00 | 0.00 | 84 | 1018.8 |
| 20260902161605 | 58 | 171 | 2.0 | 3.0 | 0.00 | 0.00 | 0.00 | 83 | 1018.8 |